Вернуться в каталог

FENGYUN 1C DEB

АктивенSSO
NORAD 30506·DEBRIS·🇨🇳 China

Запущен May 10, 1999 с Taiyuan Satellite Launch Center

Loading…

Ближайшие Пролёты (ближайшие 24 часа)

TLE

СвежийSource: Space-Track

Эпоха: Sep 14, 2026, 06:57 UTC

1 30506U 99025AHU 26257.28994634  .00000172  00000-0  12217-3 0  9992
2 30506  98.7613 259.5781 0069141 289.3855 202.5134 14.08907878  7026

Отслеживайте FENGYUN 1C DEB в реальном времени с AllMySat

Download on the App Store